This is the latest recevied weather packets stored in our database for station/object GW7110. If no packets are shown the sender has not sent any weather packets the latest 10 day(s).
| Time | Temp. | Humidity | Pressure | Rain* | Wind** | Luminosity | Snow |
|---|---|---|---|---|---|---|---|
| 1777383645 | 16.67° C | 94% | 30.2 hPa | 7.87 mm | - | 15 W/m² | - |
| 1777383344 | 16.67° C | 94% | 30.2 hPa | 7.87 mm | - | 6 W/m² | - |
| 1777383045 | 16.67° C | 94% | 30.2 hPa | 8.38 mm | - | 14 W/m² | - |
| 1777382746 | 16.67° C | 94% | 30.1 hPa | 8.38 mm | - | 23 W/m² | - |
| 1777382445 | 17.22° C | 94% | 30.2 hPa | 12.7 mm | - | 14 W/m² | - |
| 1777381845 | 16.67° C | 94% | 30.2 hPa | 8.38 mm | - | 4 W/m² | - |
| 1777381544 | 16.67° C | 94% | 30.2 hPa | 8.38 mm | - | 6 W/m² | - |
| 1777380945 | 16.67° C | 95% | 30.2 hPa | 7.62 mm | - | 7 W/m² | - |
| 1777380045 | 16.67° C | 95% | 30.2 hPa | 7.87 mm | - | 3 W/m² | - |
| 1777379745 | 16.67° C | 94% | 30.2 hPa | 11.43 mm | - | 3 W/m² | - |
| 1777379145 | 16.67° C | 94% | 30.2 hPa | 9.4 mm | - | 3 W/m² | - |
| 1777378845 | 16.67° C | 94% | 30.2 hPa | 9.14 mm | - | 4 W/m² | - |
| 1777378545 | 16.67° C | 94% | 30.2 hPa | 7.62 mm | - | 2 W/m² | - |
| 1777378245 | 16.67° C | 94% | 30.2 hPa | 5.59 mm | - | 1 W/m² | - |
| 1777377945 | 16.67° C | 94% | 30.2 hPa | 2.29 mm | - | 1 W/m² | - |
| 1777377045 | 16.67° C | 94% | 30.1 hPa | 4.32 mm | - | 4 W/m² | - |
| 1777376745 | 16.67° C | 94% | 30.1 hPa | 4.83 mm | - | 5 W/m² | - |
| 1777376147 | 16.67° C | 94% | 30.1 hPa | 4.06 mm | - | 2 W/m² | - |
| 1777375545 | 16.67° C | 94% | 30.1 hPa | 4.57 mm | - | 2 W/m² | - |
| 1777374345 | 16.67° C | 93% | 30.1 hPa | 9.4 mm | - | 1 W/m² | - |
| 1777372545 | 16.67° C | 92% | 30.1 hPa | 9.91 mm | - | 0 W/m² | - |
| 1777372244 | 16.67° C | 92% | 30.1 hPa | 9.14 mm | - | 0 W/m² | - |
| 1777371946 | 16.67° C | 91% | 30.1 hPa | 8.64 mm | - | 0 W/m² | - |
| 1777371645 | 16.67° C | 90% | 30.2 hPa | 7.11 mm | - | 0 W/m² | - |
| 1777371344 | 16.67° C | 90% | 30.1 hPa | 6.35 mm | - | 0 W/m² | - |
* Rain latest hour (hover to see other rain measurements)
** Current wind speed in m/s (hover to see current wind gust speed)